Zurück zum Katalog

STARLINK-34530

AktivKommunikationVLEO
NORAD 64491·PAYLOAD·🇺🇸 United States

Gestartet Jun 23, 2025 von Cape Canaveral Space Force Station

Loading…

Nächste Überflüge (nächste 24 Stunden)

TLE

AktuellSource: CelesTrak SupGP

Epoche: Sep 14, 2026, 21:24 UTC

1 64491C 25133V   26257.89215278  .00001976  00000+0  58400-4 0  2572
2 64491  53.1594 312.2552 0001191  91.2343  17.8285 15.34379745    17

Verfolge STARLINK-34530 in Echtzeit mit AllMySat

Download on the App Store